| time (UTC) | temp C | wind direction | speed KPH | gust KPH | rain 1hr cm | rain 24hr cm | rain mn cm | humidity % | barometer mb |
| 20260504081628 | 7 | 33 | 0.0 | 0.0 | 0.00 | 0.00 | 0.00 | 71 | 1013.4 |
| 20260504081123 | 7 | 46 | 0.0 | 0.0 | 0.00 | 0.00 | 0.00 | 70 | 1013.4 |
| 20260504080620 | 7 | 34 | 0.0 | 0.0 | 0.00 | 0.00 | 0.00 | 70 | 1013.6 |
| 20260504080117 | 7 | 33 | 1.6 | 1.6 | 0.00 | 0.00 | 0.00 | 69 | 1013.4 |
| 20260504050433 | 6 | 41 | 0.0 | 0.0 | 0.00 | 0.00 | 0.00 | 83 | 1013.9 |
| 20260504045930 | 6 | 40 | 0.0 | 0.0 | 0.00 | 0.00 | 0.00 | 83 | 1014.1 |
| 20260504045426 | 6 | 41 | 0.0 | 0.0 | 0.00 | 0.00 | 0.00 | 81 | 1014.2 |
| 20260504044922 | 5 | 43 | 0.0 | 0.0 | 0.00 | 0.00 | 0.00 | 81 | 1014.0 |
| 20260504044420 | 5 | 43 | 0.0 | 0.0 | 0.00 | 0.00 | 0.00 | 82 | 1014.0 |
| 20260504043917 | 5 | 43 | 0.0 | 0.0 | 0.00 | 0.00 | 0.00 | 83 | 1014.2 |
| 20260504043414 | 5 | 43 | 0.0 | 0.0 | 0.00 | 0.00 | 0.00 | 83 | 1014.2 |
| 20260504042911 | 5 | 43 | 0.0 | 0.0 | 0.00 | 0.00 | 0.00 | 83 | 1014.2 |
| 20260504042408 | 5 | 43 | 0.0 | 0.0 | 0.00 | 0.00 | 0.00 | 83 | 1014.0 |
| 20260504041904 | 5 | 43 | 0.0 | 0.0 | 0.00 | 0.00 | 0.00 | 83 | 1014.2 |
| 20260504041400 | 5 | 42 | 0.0 | 0.0 | 0.00 | 0.00 | 0.00 | 85 | 1014.2 |
| 20260504040856 | 5 | 42 | 0.0 | 0.0 | 0.00 | 0.00 | 0.00 | 87 | 1014.1 |
| 20260504040354 | 5 | 44 | 0.0 | 0.0 | 0.00 | 0.00 | 0.00 | 89 | 1014.3 |
| 20260504035850 | 5 | 46 | 0.0 | 0.0 | 0.00 | 0.00 | 0.00 | 89 | 1014.1 |
| 20260504035348 | 5 | 43 | 0.0 | 0.0 | 0.00 | 0.00 | 0.00 | 88 | 1014.2 |
| 20260504034844 | 5 | 38 | 0.0 | 0.0 | 0.00 | 0.00 | 0.00 | 87 | 1014.1 |
| 20260504034342 | 5 | 37 | 0.0 | 0.0 | 0.00 | 0.00 | 0.00 | 87 | 1014.1 |
| 20260504033838 | 6 | 40 | 0.0 | 0.0 | 0.00 | 0.00 | 0.00 | 87 | 1013.9 |
| 20260504033337 | 5 | 40 | 0.0 | 0.0 | 0.00 | 0.00 | 0.00 | 84 | 1014.0 |
| 20260504032833 | 5 | 44 | 0.0 | 0.0 | 0.00 | 0.00 | 0.00 | 82 | 1014.0 |
| 20260504032330 | 5 | 44 | 0.0 | 0.0 | 0.00 | 0.00 | 0.00 | 82 | 1013.9 |
| 20260504031827 | 5 | 44 | 0.0 | 0.0 | 0.00 | 0.00 | 0.00 | 82 | 1013.7 |
| 20260504031324 | 6 | 44 | 0.0 | 0.0 | 0.00 | 0.00 | 0.00 | 83 | 1013.8 |
| 20260504030820 | 6 | 44 | 0.0 | 0.0 | 0.00 | 0.00 | 0.00 | 84 | 1013.9 |
| 20260504030318 | 6 | 44 | 0.0 | 0.0 | 0.00 | 0.00 | 0.00 | 83 | 1013.8 |
| 20260504025814 | 6 | 44 | 0.0 | 0.0 | 0.00 | 0.00 | 0.00 | 83 | 1013.8 |
| 20260504025311 | 6 | 44 | 0.0 | 0.0 | 0.00 | 0.00 | 0.00 | 83 | 1013.8 |
| 20260504024808 | 6 | 43 | 0.0 | 0.0 | 0.00 | 0.00 | 0.00 | 82 | 1014.0 |
| 20260504024304 | 6 | 44 | 0.0 | 0.0 | 0.00 | 0.00 | 0.00 | 79 | 1013.9 |
| 20260504023801 | 6 | 44 | 0.0 | 0.0 | 0.00 | 0.00 | 0.00 | 78 | 1013.6 |
| 20260504023257 | 6 | 44 | 0.0 | 0.0 | 0.00 | 0.00 | 0.00 | 77 | 1013.6 |
| 20260504022753 | 6 | 44 | 0.0 | 0.0 | 0.00 | 0.00 | 0.00 | 77 | 1013.6 |
| 20260504022250 | 7 | 44 | 0.0 | 0.0 | 0.00 | 0.00 | 0.00 | 78 | 1013.7 |
| 20260504021747 | 7 | 44 | 0.0 | 0.0 | 0.00 | 0.00 | 0.00 | 77 | 1013.7 |
| 20260504021244 | 7 | 44 | 0.0 | 0.0 | 0.00 | 0.00 | 0.00 | 75 | 1013.5 |
| 20260504020741 | 7 | 44 | 0.0 | 0.0 | 0.00 | 0.00 | 0.00 | 72 | 1013.5 |
| 20260504020237 | 7 | 44 | 0.0 | 0.0 | 0.00 | 0.00 | 0.00 | 67 | 1013.6 |
| 20260504015733 | 7 | 44 | 0.0 | 0.0 | 0.00 | 0.00 | 0.00 | 69 | 1013.3 |
| 20260504015230 | 7 | 44 | 0.0 | 0.0 | 0.00 | 0.00 | 0.00 | 70 | 1013.2 |
| 20260504014726 | 7 | 46 | 0.0 | 0.0 | 0.00 | 0.00 | 0.00 | 68 | 1013.3 |
| 20260504014223 | 7 | 51 | 0.0 | 0.0 | 0.00 | 0.00 | 0.00 | 63 | 1013.1 |
| 20260504013720 | 7 | 51 | 0.0 | 0.0 | 0.00 | 0.00 | 0.00 | 60 | 1013.1 |
| 20260504013218 | 8 | 51 | 0.0 | 0.0 | 0.00 | 0.00 | 0.00 | 60 | 1013.4 |
| 20260504012714 | 8 | 51 | 0.0 | 0.0 | 0.00 | 0.00 | 0.00 | 59 | 1013.0 |
| 20260504012212 | 8 | 51 | 0.0 | 0.0 | 0.00 | 0.00 | 0.00 | 56 | 1012.8 |
| 20260504011709 | 8 | 51 | 0.0 | 0.0 | 0.00 | 0.00 | 0.00 | 56 | 1013.0 |
| 20260504011206 | 8 | 52 | 0.0 | 0.0 | 0.00 | 0.00 | 0.00 | 55 | 1012.9 |
| 20260504010702 | 9 | 53 | 0.0 | 0.0 | 0.00 | 0.00 | 0.00 | 55 | 1012.9 |
| 20260504010157 | 9 | 54 | 0.0 | 0.0 | 0.00 | 0.00 | 0.00 | 54 | 1012.9 |
| 20260504005654 | 10 | 54 | 0.0 | 0.0 | 0.00 | 0.00 | 0.00 | 54 | 1012.7 |
| 20260504005151 | 10 | 54 | 0.0 | 0.0 | 0.00 | 0.00 | 0.00 | 53 | 1012.7 |
| 20260504004649 | 10 | 55 | 0.0 | 0.0 | 0.00 | 0.00 | 0.00 | 52 | 1012.8 |
| 20260504004146 | 10 | 58 | 0.0 | 0.0 | 0.00 | 0.00 | 0.00 | 50 | 1012.9 |
| 20260504003642 | 11 | 51 | 0.0 | 0.0 | 0.00 | 0.00 | 0.00 | 50 | 1012.7 |
| 20260504003139 | 11 | 58 | 0.0 | 0.0 | 0.00 | 0.00 | 0.00 | 48 | 1012.6 |
| 20260504002636 | 12 | 55 | 0.0 | 0.0 | 0.00 | 0.00 | 0.00 | 48 | 1012.6 |
| 20260504002134 | 12 | 52 | 0.0 | 0.0 | 0.00 | 0.00 | 0.00 | 47 | 1012.7 |
| 20260504001631 | 12 | 50 | 0.0 | 0.0 | 0.00 | 0.00 | 0.00 | 43 | 1012.6 |
| 20260504001127 | 13 | 50 | 0.0 | 0.0 | 0.00 | 0.00 | 0.00 | 41 | 1012.6 |
| 20260504000625 | 13 | 50 | 0.0 | 0.0 | 0.00 | 0.00 | 0.00 | 38 | 1012.7 |
| 20260504000122 | 13 | 50 | 0.0 | 0.0 | 0.00 | 0.00 | 0.00 | 38 | 1012.7 |
| 20260503235620 | 14 | 50 | 0.0 | 0.0 | 0.00 | 0.00 | 0.00 | 37 | 1012.7 |
| 20260503235116 | 14 | 51 | 0.0 | 0.0 | 0.00 | 0.00 | 0.00 | 36 | 1012.6 |
| 20260503234614 | 15 | 61 | 0.0 | 0.0 | 0.00 | 0.00 | 0.00 | 34 | 1012.7 |
| 20260503234112 | 15 | 17 | 3.2 | 4.8 | 0.00 | 0.00 | 0.00 | 34 | 1012.8 |
| 20260503233609 | 15 | 57 | 1.6 | 3.2 | 0.00 | 0.00 | 0.00 | 34 | 1012.4 |
| 20260503233104 | 15 | 11 | 3.2 | 4.8 | 0.00 | 0.00 | 0.00 | 34 | 1012.5 |
| 20260503232602 | 15 | 33 | 1.6 | 3.2 | 0.00 | 0.00 | 0.00 | 33 | 1012.4 |
| 20260503232059 | 15 | 351 | 1.6 | 3.2 | 0.00 | 0.00 | 0.00 | 34 | 1012.4 |
| 20260503231557 | 15 | 47 | 1.6 | 3.2 | 0.00 | 0.00 | 0.00 | 33 | 1012.4 |
| 20260503231053 | 16 | 324 | 6.4 | 9.7 | 0.00 | 0.00 | 0.00 | 33 | 1012.3 |
| 20260503230550 | 16 | 334 | 4.8 | 4.8 | 0.00 | 0.00 | 0.00 | 32 | 1012.4 |
| 20260503230047 | 16 | 53 | 3.2 | 4.8 | 0.00 | 0.00 | 0.00 | 31 | 1012.4 |
| 20260503225544 | 16 | 20 | 4.8 | 4.8 | 0.00 | 0.00 | 0.00 | 34 | 1012.4 |
| 20260503225039 | 16 | 342 | 6.4 | 11.3 | 0.00 | 0.00 | 0.00 | 32 | 1012.4 |
| 20260503224537 | 16 | 343 | 3.2 | 3.2 | 0.00 | 0.00 | 0.00 | 32 | 1012.4 |
| 20260503224034 | 16 | 9 | 3.2 | 3.2 | 0.00 | 0.00 | 0.00 | 33 | 1012.4 |
| 20260503223532 | 16 | 99 | 0.0 | 1.6 | 0.00 | 0.00 | 0.00 | 33 | 1012.4 |
| 20260503223027 | 16 | 37 | 3.2 | 4.8 | 0.00 | 0.00 | 0.00 | 33 | 1012.4 |
| 20260503222526 | 16 | 324 | 3.2 | 4.8 | 0.00 | 0.00 | 0.00 | 32 | 1012.4 |
| 20260503222024 | 16 | 17 | 4.8 | 4.8 | 0.00 | 0.00 | 0.00 | 33 | 1012.4 |
| 20260503221522 | 16 | 344 | 6.4 | 9.7 | 0.00 | 0.00 | 0.00 | 32 | 1012.5 |
| 20260503221019 | 16 | 42 | 4.8 | 11.3 | 0.00 | 0.00 | 0.00 | 32 | 1012.3 |
| 20260503220515 | 16 | 353 | 6.4 | 8.0 | 0.00 | 0.00 | 0.00 | 31 | 1012.5 |
| 20260503220012 | 16 | 12 | 3.2 | 3.2 | 0.00 | 0.00 | 0.00 | 31 | 1012.6 |
| 20260503215509 | 16 | 351 | 6.4 | 8.0 | 0.00 | 0.00 | 0.00 | 31 | 1012.5 |
| 20260503215006 | 17 | 5 | 1.6 | 3.2 | 0.00 | 0.00 | 0.00 | 31 | 1012.5 |
| 20260503214504 | 17 | 355 | 3.2 | 3.2 | 0.00 | 0.00 | 0.00 | 30 | 1012.7 |
| 20260503214000 | 17 | 355 | 4.8 | 4.8 | 0.00 | 0.00 | 0.00 | 31 | 1012.7 |
| 20260503213459 | 17 | 7 | 6.4 | 9.7 | 0.00 | 0.00 | 0.00 | 31 | 1012.6 |
| 20260503212955 | 17 | 347 | 6.4 | 9.7 | 0.00 | 0.00 | 0.00 | 32 | 1012.7 |
| 20260503212452 | 17 | 24 | 8.0 | 11.3 | 0.00 | 0.00 | 0.00 | 31 | 1012.8 |
| 20260503211949 | 17 | 18 | 12.9 | 17.7 | 0.00 | 0.00 | 0.00 | 29 | 1012.6 |
| 20260503211447 | 17 | 29 | 3.2 | 4.8 | 0.00 | 0.00 | 0.00 | 31 | 1012.4 |
| 20260503210942 | 17 | 52 | 1.6 | 3.2 | 0.00 | 0.00 | 0.00 | 31 | 1012.4 |
| 20260503210439 | 17 | 6 | 4.8 | 8.0 | 0.00 | 0.00 | 0.00 | 30 | 1012.9 |
| 20260503205934 | 17 | 354 | 8.0 | 11.3 | 0.00 | 0.00 | 0.00 | 30 | 1013.1 |
| 20260503205431 | 17 | 358 | 0.0 | 1.6 | 0.00 | 0.00 | 0.00 | 30 | 1012.7 |
| 20260503204927 | 17 | 49 | 0.0 | 1.6 | 0.00 | 0.00 | 0.00 | 30 | 1012.7 |
| 20260503204425 | 17 | 10 | 6.4 | 9.7 | 0.00 | 0.00 | 0.00 | 31 | 1012.8 |
| 20260503203922 | 17 | 43 | 0.0 | 1.6 | 0.00 | 0.00 | 0.00 | 31 | 1012.8 |
| 20260503203419 | 17 | 325 | 4.8 | 8.0 | 0.00 | 0.00 | 0.00 | 30 | 1012.7 |
| 20260503202916 | 17 | 14 | 8.0 | 9.7 | 0.00 | 0.00 | 0.00 | 29 | 1012.9 |
| 20260503202414 | 17 | 51 | 1.6 | 1.6 | 0.00 | 0.00 | 0.00 | 32 | 1012.8 |
| 20260503201912 | 17 | 341 | 6.4 | 8.0 | 0.00 | 0.00 | 0.00 | 30 | 1013.0 |
| 20260503201409 | 17 | 334 | 11.3 | 14.5 | 0.00 | 0.00 | 0.00 | 30 | 1013.2 |
| 20260503200907 | 17 | 288 | 9.7 | 14.5 | 0.00 | 0.00 | 0.00 | 30 | 1013.2 |
| 20260503200402 | 16 | 347 | 9.7 | 11.3 | 0.00 | 0.00 | 0.00 | 30 | 1013.2 |
| 20260503195859 | 17 | 71 | 3.2 | 4.8 | 0.00 | 0.00 | 0.00 | 31 | 1013.1 |
| 20260503195356 | 17 | 51 | 0.0 | 1.6 | 0.00 | 0.00 | 0.00 | 30 | 1013.3 |
| 20260503194853 | 17 | 279 | 4.8 | 8.0 | 0.00 | 0.00 | 0.00 | 30 | 1013.5 |
| 20260503194349 | 17 | 302 | 3.2 | 4.8 | 0.00 | 0.00 | 0.00 | 32 | 1013.4 |
| 20260503193845 | 17 | 336 | 0.0 | 0.0 | 0.00 | 0.00 | 0.00 | 30 | 1013.5 |
| 20260503193341 | 16 | 21 | 6.4 | 8.0 | 0.00 | 0.00 | 0.00 | 29 | 1013.7 |
| 20260503192837 | 17 | 35 | 4.8 | 4.8 | 0.00 | 0.00 | 0.00 | 31 | 1013.8 |
| 20260503192333 | 16 | 5 | 4.8 | 4.8 | 0.00 | 0.00 | 0.00 | 33 | 1013.9 |
| 20260503191830 | 16 | 341 | 8.0 | 12.9 | 0.00 | 0.00 | 0.00 | 31 | 1014.0 |
| 20260503191327 | 16 | 284 | 11.3 | 14.5 | 0.00 | 0.00 | 0.00 | 32 | 1014.0 |
| 20260503190823 | 16 | 332 | 8.0 | 11.3 | 0.00 | 0.00 | 0.00 | 32 | 1013.8 |
| 20260503190321 | 16 | 3 | 4.8 | 9.7 | 0.00 | 0.00 | 0.00 | 31 | 1014.2 |
| 20260503185818 | 16 | 12 | 11.3 | 12.9 | 0.00 | 0.00 | 0.00 | 30 | 1014.4 |
| 20260503185313 | 16 | 331 | 1.6 | 3.2 | 0.00 | 0.00 | 0.00 | 33 | 1014.4 |
| 20260503184808 | 16 | 40 | 4.8 | 4.8 | 0.00 | 0.00 | 0.00 | 31 | 1014.3 |
| 20260503184304 | 16 | 288 | 8.0 | 14.5 | 0.00 | 0.00 | 0.00 | 31 | 1014.3 |
| 20260503183800 | 16 | 346 | 4.8 | 8.0 | 0.00 | 0.00 | 0.00 | 33 | 1014.6 |
| 20260503183258 | 16 | 354 | 8.0 | 11.3 | 0.00 | 0.00 | 0.00 | 33 | 1014.8 |
| 20260503182755 | 16 | 11 | 8.0 | 16.1 | 0.00 | 0.00 | 0.00 | 33 | 1014.7 |
| 20260503182254 | 16 | 47 | 1.6 | 3.2 | 0.00 | 0.00 | 0.00 | 35 | 1014.8 |
| 20260503181750 | 15 | 319 | 3.2 | 4.8 | 0.00 | 0.00 | 0.00 | 36 | 1014.7 |
| 20260503181247 | 16 | 271 | 4.8 | 8.0 | 0.00 | 0.00 | 0.00 | 33 | 1014.6 |
| 20260503180744 | 15 | 334 | 3.2 | 3.2 | 0.00 | 0.00 | 0.00 | 36 | 1014.5 |
| 20260503180242 | 15 | 18 | 4.8 | 8.0 | 0.00 | 0.00 | 0.00 | 34 | 1014.9 |
| 20260503175738 | 15 | 37 | 4.8 | 8.0 | 0.00 | 0.00 | 0.00 | 36 | 1014.8 |
| 20260503175237 | 15 | 17 | 6.4 | 9.7 | 0.00 | 0.00 | 0.00 | 37 | 1014.7 |
| 20260503174732 | 14 | 26 | 1.6 | 3.2 | 0.00 | 0.00 | 0.00 | 36 | 1014.8 |
| 20260503174231 | 15 | 339 | 6.4 | 9.7 | 0.00 | 0.00 | 0.00 | 37 | 1015.1 |
| 20260503173730 | 15 | 327 | 4.8 | 4.8 | 0.00 | 0.00 | 0.00 | 36 | 1014.7 |
| 20260503173227 | 15 | 289 | 8.0 | 11.3 | 0.00 | 0.00 | 0.00 | 35 | 1015.2 |
| 20260503172724 | 15 | 314 | 9.7 | 12.9 | 0.00 | 0.00 | 0.00 | 36 | 1015.1 |
| 20260503172221 | 15 | 59 | 6.4 | 11.3 | 0.00 | 0.00 | 0.00 | 37 | 1014.9 |
| 20260503171717 | 15 | 351 | 9.7 | 11.3 | 0.00 | 0.00 | 0.00 | 36 | 1015.0 |
| 20260503171215 | 15 | 354 | 8.0 | 11.3 | 0.00 | 0.00 | 0.00 | 36 | 1015.4 |
| 20260503170711 | 15 | 22 | 4.8 | 8.0 | 0.00 | 0.00 | 0.00 | 38 | 1015.0 |
| 20260503170208 | 13 | 357 | 0.0 | 1.6 | 0.00 | 0.00 | 0.00 | 41 | 1015.5 |
| 20260503160130 | 12 | 33 | 4.8 | 8.0 | 0.00 | 0.00 | 0.00 | 42 | 1015.8 |
| 20260503150600 | 12 | 15 | 16.1 | 20.9 | 0.00 | 0.00 | 0.00 | 44 | 1016.0 |
| 20260503130949 | 9 | 49 | 3.2 | 8.0 | 0.00 | 0.00 | 0.00 | 54 | 1016.6 |
| 20260503130448 | 9 | 31 | 4.8 | 4.8 | 0.00 | 0.00 | 0.00 | 56 | 1016.5 |
| 20260503110338 | 5 | 29 | 4.8 | 8.0 | 0.00 | 0.00 | 0.00 | 72 | 1015.5 |